Regional Weather Roundup
Issued by NWS

Home | Current Version | Previous Version | Text Only | Print | Product List | Glossary Off
Versions: 1 2 3 4 5 6 7 8 9 10 11 12 13 14 15 16 17 18 19 20 21 22 23 24 25 26 27 28 29 30 31 32 33 34 35 36 37 38 39 40 41 42 43 44 45 46 47 48 49 50

000
ASUS45 KPSR 292110
RWRAZ

ARIZONA HOURLY REGIONAL WEATHER ROUNDUP
NATIONAL WEATHER SERVICE PHOENIX AZ
200 PM MST FRI JUL 29 2016

NOTE: FAIR INDICATES FEW OR NO CLOUDS BELOW 12,000 FEET WITH NO
SIGNIFICANT WEATHER AND/OR OBSTRUCTIONS TO VISIBILITY.

AZZ001>003-036-292200-
NORTHWEST ARIZONA

CITY           SKY/WX    TMP DP  RH WIND       PRES   REMARKS
BULLHEAD CITY  MOSUNNY  111  55  16 SW10      29.69F HX 110
KINGMAN        SUNNY    104  48  15 SW13      29.95F HX 100
$$

AZZ004>008-015-016-018-292200-
NORTH CENTRAL ARIZONA

CITY           SKY/WX    TMP DP  RH WIND       PRES   REMARKS
GRAND CANYON   MOSUNNY   94  34  12 VRB5G22   30.22S
WILLIAMS       MOSUNNY   90  37  15 W7G13     30.29F
PRESCOTT       SUNNY     99  41  13 N12       30.07F
FLAGSTAFF      TSTM      60  54  80 W8        30.27S
PAYSON         MOSUNNY   95  48  20 SW12G23   30.09F
PAGE           MOSUNNY  105  30   7 N10       29.96F
$$

AZZ009>014-017-292200-
NORTHEAST ARIZONA

CITY           SKY/WX    TMP DP  RH WIND       PRES   REMARKS
WINSLOW        SUNNY    102  35  10 VRB3G18   30.01F
SAINT JOHNS    MOSUNNY   97  37  12 W7        30.08F
WINDOW ROCK    PTSUNNY   74  46  36 NE18G32   30.24F
SHOW LOW       SUNNY     88  37  16 SW7       30.17F
$$

AZZ023-292200-
GREATER PHOENIX AREA

CITY           SKY/WX    TMP DP  RH WIND       PRES   REMARKS
PHOENIX        MOSUNNY  108  61  21 W13       29.74F HX 110
BUCKEYE          N/A    106  55  18 SW5       29.76F HX 105
GLENDALE       MOSUNNY  108  61  21 S8        29.75F HX 109
LUKE AFB       SUNNY    108  61  21 SW16      29.72F HX 109
DEER VALLEY    SUNNY    103  60  24 VRB7      29.77F HX 104
SCOTTSDALE     SUNNY    104  59  22 SW10      29.79F HX 104
MESA-GATEWAY   MOSUNNY  104  63  25 NW7       29.78F HX 106
CHANDLER       SUNNY    106  61  23 NW6       29.76F HX 107
$$

AZZ027-028-292200-
SOUTHWEST MARICOPA COUNTY AND PINAL COUNTY

CITY           SKY/WX    TMP DP  RH WIND       PRES   REMARKS
CASA GRANDE    SUNNY    106  61  23 W14       29.81F HX 107
GILA BEND      MOSUNNY  108  59  20 NW8G20    29.74F HX 108
$$

AZZ503-504-507>509-292200-
SOUTHEAST ARIZONA

CITY           SKY/WX    TMP DP  RH WIND       PRES   REMARKS
TUCSON         SUNNY    100  60  26 CALM      29.89F HX 100
DAVIS-MONTHAN  SUNNY     99  61  28 VRB5      29.88F HX 100
RYAN FIELD     SUNNY    100  61  27 W8        29.88F HX 101
NOGALES        MOSUNNY   96  63  33 W6        29.99F
SIERRA VISTA   PTSUNNY   96  52  22 VRB7      30.06F
DOUGLAS        MOSUNNY   98  56  24 NE10      30.00F
SAFFORD        PTSUNNY  102  52  18 SW7       29.89F
$$

AZZ020-021-025-026-031-292200-
SOUTHWEST ARIZONA

CITY           SKY/WX    TMP DP  RH WIND       PRES   REMARKS
YUMA           MOSUNNY  106  67  28 S10       29.72F HX 112
$$

CAZ031-033-041-043-047-048-061-292200-
SOUTHERN CALIFORNIA

CITY           SKY/WX    TMP DP  RH WIND       PRES   REMARKS
DOWNTOWN L.A.  SUNNY     86  66  51 VRB6      29.81F
L.A. AIRPORT   MOSUNNY   77  64  64 W13       29.83F
SAN DIEGO      MOSUNNY   74  65  73 SW8       29.85F
BURBANK        SUNNY     93  62  35 S10       29.81F
ONTARIO        MOSUNNY  100  56  23 W16       29.81F
RIVERSIDE      SUNNY    102  57  22 W10       29.80F HX 101
PALM SPRINGS   MOSUNNY  107  60  21 E10       29.74F HX 108
EL CENTRO NAS  MOSUNNY  108  60  21 VRB3      29.70F HX 109
IMPERIAL       SUNNY    109  71  29 CALM      29.68F HX 119
NEEDLES        MOSUNNY  114  56  15 VRB3G20   29.71F HX 113
$$

NVZ020-UTZ003-292200-
SOUTHERN NEVADA-UTAH

CITY           SKY/WX    TMP DP  RH WIND       PRES   REMARKS
LAS VEGAS      PTSUNNY  110  41   9 E9        29.77F HX 104
SALT LAKE CITY MOSUNNY   99  35  10 VRB6      29.99F
$$

NMZ009-TXZ055-292200-
NEW MEXICO-WEST TEXAS

CITY           SKY/WX    TMP DP  RH WIND       PRES   REMARKS
ALBUQUERQUE    CLOUDY    90  46  21 SW20G29   30.12F
EL PASO        MOSUNNY   97  49  19 E17G28    30.01F
$$


........................KEY........................
SKY/WX - SKY CONDITION/WEATHER
TMP    - TEMPERATURE IN FAHRENHEIT
DP     - DEW POINT IN FAHRENHEIT
RH     - RELATIVE HUMIDITY IN PERCENT
WIND   - DIRECTION AND SPEED IN MILES PER HOUR (MPH)
VRB    - VARIABLE WIND DIRECTION
PRES   - MEAN SEA LEVEL PRESSURE IN INCHES OF MERCURY
         F - FALLING PRESSURE   R - RISING PRESSURE
         S - STEADY PRESSURE
VSB    - VISIBILITY IN MILES
HX     - HEAT INDEX IN FAHRENHEIT
WCI    - WIND CHILL INDEX IN FAHRENHEIT
TC     - TEMPERATURE IN CELSIUS WHICH IS ALSO KNOWN AS
         TEMPERATURE IN CENTIGRADE
AFB    - AIR FORCE BASE
         LUKE AFB IS LUKE AIR FORCE BASE
         DAVIS-MONTHAN IS DAVIS-MONTHAN AIR FORCE BASE
NAS    - NAVAL AIR STATION
         EL CENTRO NAS IS EL CENTRO NAVAL AIR STATION
N/A    - NOT AVAILABLE




USA.gov is the U.S. government's official web portal to all federal, state and local government web resources and services.